Weather History for Visalia, CA

Change the Weather History Date:

Friday, April 11, 2014

  Actual Average Record
Temperature  
Mean Temperature 72 °F -  
Max Temperature 87 °F 73 °F 95 °F (1951)
Min Temperature 57 °F 49 °F 37 °F (1991)
Cooling Degree Days 7    
Growing Degree Days 22 (Base 50)    
Moisture  
Dew Point 51 °F    
Average Humidity 51    
Maximum Humidity 82    
Minimum Humidity 23    
Precipitation  
Precipitation 0.00 in - - ()
Sea Level Pressure  
Sea Level Pressure 29.83 in    
Wind  
Wind Speed 4 mph (West)    
Max Wind Speed 9 mph    
Max Gust Speed -    
Visibility 9 miles    
Events      
Averages and records for this station are not official NWS values.
T = Trace of Precipitation, MM = Missing Value Source: NWS Daily Summary

Daily Weather History Graph

Daily Weather History Graph

Search for Another Location

Airport:

Trip Planner

Search our weather history database for the weather conditions in past years. The results will help you decide how hot, cold, wet, or windy it might be!

Date:

Astronomy

Apr. 11, 2014 Rise Set
Actual Time 6:29 AM PDT 7:28 PM PDT
Civil Twilight 6:03 AM PDT 7:54 PM PDT
Nautical Twilight 5:31 AM PDT 8:25 PM PDT
Astronomical Twilight 4:59 AM PDT 8:58 PM PDT
Moon 4:18 PM PDT (4/11) 4:21 AM PDT (4/11)
Length of Visible Light 13h 51m
Length of Day
12h 58m
Waxing Gibbous, 87% of the Moon is Illuminated
Apr 11
Waxing Gibbous
Apr 15
Full
Apr 22
Last Quarter
Apr 28
New
May 6
First Quarter

Hourly Weather History & Observations

Time (PDT) Temp. Heat Index Dew Point Humidity Pressure Visibility Wind Dir Wind Speed Gust Speed Precip Events Conditions
12:15 AM 64.4 °F - 51.8 °F 64% 29.90 in 10.0 mi SE 3.5 mph - N/A   Clear
12:35 AM 64.4 °F - 51.8 °F 64% 29.90 in 10.0 mi SSW 6.9 mph - N/A   Clear
12:55 AM 64.4 °F - 51.8 °F 64% 29.90 in 10.0 mi Calm Calm - N/A   Clear
1:15 AM 64.4 °F - 51.8 °F 64% 29.90 in 10.0 mi Calm Calm - N/A   Clear
1:35 AM 64.4 °F - 51.8 °F 64% 29.89 in 10.0 mi WNW 4.6 mph - N/A   Clear
1:55 AM 64.4 °F - 51.8 °F 64% 29.88 in 10.0 mi WNW 4.6 mph - N/A   Clear
2:15 AM 64.4 °F - 51.8 °F 64% 29.88 in 10.0 mi NW 5.8 mph - N/A   Clear
2:35 AM 64.4 °F - 51.8 °F 64% 29.87 in 10.0 mi Calm Calm - N/A   Clear
2:55 AM 64.4 °F - 51.8 °F 64% 29.87 in 10.0 mi East 4.6 mph - N/A   Clear
3:15 AM 64.4 °F - 51.8 °F 64% 29.87 in 10.0 mi Calm Calm - N/A   Clear
3:35 AM 64.4 °F - 51.8 °F 64% 29.86 in 10.0 mi Calm Calm - N/A   Clear
3:55 AM 62.6 °F - 51.8 °F 68% 29.87 in 10.0 mi WSW 4.6 mph - N/A   Clear
4:15 AM 62.6 °F - 51.8 °F 68% 29.87 in 10.0 mi WSW 4.6 mph - N/A   Clear
4:35 AM 62.6 °F - 51.8 °F 68% 29.86 in 10.0 mi Calm Calm - N/A   Clear
4:55 AM 60.8 °F - 50.0 °F 68% 29.86 in 8.0 mi ESE 4.6 mph - N/A   Clear
5:15 AM 60.8 °F - 51.8 °F 72% 29.86 in 7.0 mi Calm Calm - N/A   Clear
5:35 AM 60.8 °F - 51.8 °F 72% 29.86 in 8.0 mi Calm Calm - N/A   Clear
5:55 AM 60.8 °F - 51.8 °F 72% 29.86 in 9.0 mi Calm Calm - N/A   Clear
6:15 AM 59.0 °F - 50.0 °F 72% 29.86 in 8.0 mi Calm Calm - N/A   Clear
6:35 AM 57.2 °F - 48.2 °F 72% 29.86 in 5.0 mi Calm Calm - N/A   Clear
6:55 AM 57.2 °F - 51.8 °F 82% 29.87 in 5.0 mi Calm Calm - N/A   Clear
7:15 AM 57.2 °F - 50.0 °F 77% 29.87 in 5.0 mi Calm Calm - N/A   Clear
7:35 AM 57.2 °F - 50.0 °F 77% 29.87 in 6.0 mi Calm Calm - N/A   Clear
7:55 AM 60.8 °F - 51.8 °F 72% 29.87 in 5.0 mi ESE 4.6 mph - N/A   Clear
8:15 AM 62.6 °F - 51.8 °F 68% 29.88 in 6.0 mi SSE 5.8 mph - N/A   Clear
8:35 AM 64.4 °F - 51.8 °F 64% 29.87 in 7.0 mi ESE 3.5 mph - N/A   Clear
8:55 AM 66.2 °F - 51.8 °F 60% 29.87 in 7.0 mi SE 4.6 mph - N/A   Clear
9:15 AM 68.0 °F - 53.6 °F 60% 29.88 in 9.0 mi SSE 5.8 mph - N/A   Clear
9:35 AM 69.8 °F - 53.6 °F 56% 29.89 in 8.0 mi SSW 5.8 mph - N/A   Clear
9:55 AM 69.8 °F - 53.6 °F 56% 29.89 in 7.0 mi SSW 6.9 mph - N/A   Clear
10:15 AM 71.6 °F - 55.4 °F 57% 29.89 in 7.0 mi SSW 6.9 mph - N/A   Clear
10:35 AM 71.6 °F - 55.4 °F 57% 29.90 in 6.0 mi South 4.6 mph - N/A   Clear
10:55 AM 73.4 °F - 55.4 °F 53% 29.90 in 7.0 mi South 4.6 mph - N/A   Clear
11:15 AM 75.2 °F - 55.4 °F 50% 29.89 in 8.0 mi Calm Calm - N/A   Clear
11:35 AM 77.0 °F - 57.2 °F 50% 29.88 in 9.0 mi Calm Calm - N/A   Clear
11:55 AM 78.8 °F - 55.4 °F 44% 29.87 in 7.0 mi South 5.8 mph - N/A   Clear
12:15 PM 80.6 °F 80.5 °F 55.4 °F 42% 29.86 in 9.0 mi South 4.6 mph - N/A   Clear
12:35 PM 80.6 °F 80.5 °F 55.4 °F 42% 29.85 in 9.0 mi South 5.8 mph - N/A   Clear
12:55 PM 80.6 °F 80.5 °F 55.4 °F 42% 29.85 in 10.0 mi SW 5.8 mph - N/A   Clear
1:15 PM 82.4 °F - 51.8 °F 35% 29.83 in 10.0 mi Calm Calm - N/A   Clear
1:35 PM 82.4 °F - 48.2 °F 30% 29.83 in 10.0 mi NW 3.5 mph - N/A   Clear
1:55 PM 84.2 °F - 51.8 °F 33% 29.81 in 10.0 mi WNW 5.8 mph - N/A   Clear
2:15 PM 84.2 °F 82.8 °F 53.6 °F 35% 29.80 in 10.0 mi West 5.8 mph - N/A   Clear
2:35 PM 86.0 °F 84.2 °F 53.6 °F 33% 29.81 in 10.0 mi West 6.9 mph - N/A   Clear
2:55 PM 86.0 °F - 50.0 °F 29% 29.79 in 10.0 mi WNW 6.9 mph - N/A   Clear
3:15 PM 87.8 °F - 48.2 °F 25% 29.78 in 10.0 mi WNW 4.6 mph - N/A   Clear
3:35 PM 86.0 °F - 48.2 °F 27% 29.77 in 10.0 mi West 3.5 mph - N/A   Clear
3:55 PM 86.0 °F - 48.2 °F 27% 29.76 in 10.0 mi West 3.5 mph - N/A   Clear
4:15 PM 86.0 °F - 46.4 °F 25% 29.75 in 10.0 mi West 5.8 mph - N/A   Clear
4:35 PM 86.0 °F - 48.2 °F 27% 29.76 in 10.0 mi West 6.9 mph - N/A   Clear
4:55 PM 86.0 °F - 50.0 °F 29% 29.74 in 10.0 mi West 6.9 mph - N/A   Clear
5:15 PM 87.8 °F - 50.0 °F 27% 29.73 in 10.0 mi West 5.8 mph - N/A   Clear
5:35 PM 84.2 °F - 51.8 °F 33% 29.73 in 10.0 mi WNW 8.1 mph - N/A   Clear
5:55 PM 86.0 °F - 50.0 °F 29% 29.73 in 10.0 mi NNW 8.1 mph - N/A   Clear
6:15 PM 86.0 °F - 44.6 °F 23% 29.73 in 10.0 mi North 6.9 mph - N/A   Clear
6:35 PM 84.2 °F - 44.6 °F 25% 29.73 in 10.0 mi North 5.8 mph - N/A   Clear
6:55 PM 84.2 °F - 42.8 °F 23% 29.72 in 10.0 mi North 4.6 mph - N/A   Clear
7:15 PM 82.4 °F - 44.6 °F 26% 29.72 in 10.0 mi North 3.5 mph - N/A   Clear
7:35 PM 82.4 °F - 44.6 °F 26% 29.73 in 10.0 mi Calm Calm - N/A   Clear
7:55 PM 77.0 °F - 48.2 °F 36% 29.75 in 10.0 mi West 3.5 mph - N/A   Clear
8:15 PM 73.4 °F - 53.6 °F 50% 29.75 in 10.0 mi West 9.2 mph - N/A   Clear
8:35 PM 73.4 °F - 51.8 °F 47% 29.76 in 10.0 mi WSW 6.9 mph - N/A   Clear
8:55 PM 71.6 °F - 51.8 °F 50% 29.76 in 10.0 mi WNW 6.9 mph - N/A   Clear
9:15 PM 69.8 °F - 51.8 °F 53% 29.79 in 10.0 mi West 5.8 mph - N/A   Clear
9:35 PM 69.8 °F - 51.8 °F 53% 29.78 in 10.0 mi West 6.9 mph - N/A   Clear
9:55 PM 69.8 °F - 51.8 °F 53% 29.79 in 10.0 mi WNW 5.8 mph - N/A   Clear
10:15 PM 68.0 °F - 51.8 °F 56% 29.79 in 10.0 mi WNW 5.8 mph - N/A   Clear
10:35 PM 66.2 °F - 51.8 °F 60% 29.79 in 10.0 mi West 3.5 mph - N/A   Clear
10:55 PM 68.0 °F - 51.8 °F 56% 29.80 in 10.0 mi East 4.6 mph - N/A   Clear
11:15 PM 69.8 °F - 51.8 °F 53% 29.81 in 10.0 mi NE 3.5 mph - N/A   Clear
11:35 PM 69.8 °F - 50.0 °F 49% 29.81 in 10.0 mi Calm Calm - N/A   Clear
11:55 PM 64.4 °F - 50.0 °F 59% 29.80 in 10.0 mi SSW 4.6 mph - N/A   Clear